TimeEST,TemperatureF,Dew PointF,Humidity,Sea Level PressureIn,VisibilityMPH,Wind Direction,Wind SpeedMPH,Gust SpeedMPH,PrecipitationIn,Events,Conditions,WindDirDegrees,DateUTC
12:53 AM,73.0,53.1,49,30.19,10.0,East,12.7,-,N/A,,Scattered Clouds,90,2012-12-04 05:53:00
1:53 AM,72.0,57.9,61,30.17,10.0,ENE,11.5,-,N/A,,Partly Cloudy,70,2012-12-04 06:53:00
2:53 AM,73.0,59.0,61,30.17,10.0,East,12.7,-,N/A,,Mostly Cloudy,80,2012-12-04 07:53:00
3:53 AM,72.0,62.1,71,30.17,10.0,East,11.5,-,0.00,Rain,Light Rain,90,2012-12-04 08:53:00
4:53 AM,73.0,61.0,66,30.16,10.0,East,15.0,-,0.00,,Mostly Cloudy,80,2012-12-04 09:53:00
5:53 AM,69.1,64.0,84,30.17,5.0,Calm,Calm,-,0.03,Rain,Light Rain,0,2012-12-04 10:53:00
6:53 AM,73.0,62.1,68,30.18,10.0,ENE,9.2,-,0.00,,Mostly Cloudy,70,2012-12-04 11:53:00
7:53 AM,73.0,60.1,64,30.19,10.0,East,9.2,20.7,N/A,,Mostly Cloudy,80,2012-12-04 12:53:00
8:53 AM,73.9,61.0,64,30.21,10.0,East,11.5,-,N/A,,Scattered Clouds,80,2012-12-04 13:53:00
9:53 AM,73.0,64.0,73,30.22,6.0,East,10.4,-,0.01,Rain,Light Rain,80,2012-12-04 14:53:00
10:53 AM,73.9,64.0,71,30.22,10.0,East,11.5,19.6,0.01,,Overcast,80,2012-12-04 15:53:00
11:53 AM,77.0,62.1,60,30.21,10.0,ENE,18.4,23.0,N/A,,Overcast,60,2012-12-04 16:53:00
12:53 PM,75.0,59.0,57,30.18,10.0,East,13.8,-,0.00,,Overcast,90,2012-12-04 17:53:00
1:53 PM,77.0,57.0,50,30.16,10.0,East,13.8,-,N/A,,Scattered Clouds,80,2012-12-04 18:53:00
2:53 PM,77.0,57.0,50,30.15,10.0,East,13.8,-,N/A,,Mostly Cloudy,80,2012-12-04 19:53:00
3:53 PM,75.9,57.0,52,30.15,10.0,ENE,9.2,-,N/A,,Mostly Cloudy,60,2012-12-04 20:53:00
4:53 PM,75.9,59.0,56,30.16,10.0,ENE,10.4,-,N/A,,Mostly Cloudy,70,2012-12-04 21:53:00
5:53 PM,75.0,57.0,53,30.16,10.0,East,10.4,-,N/A,,Overcast,90,2012-12-04 22:53:00
6:53 PM,75.0,57.9,55,30.17,10.0,East,8.1,-,0.00,,Mostly Cloudy,80,2012-12-04 23:53:00
7:53 PM,73.9,61.0,64,30.17,10.0,ENE,10.4,19.6,N/A,,Mostly Cloudy,70,2012-12-05 00:53:00
8:53 PM,73.9,60.1,62,30.17,10.0,ENE,10.4,-,0.00,,Mostly Cloudy,70,2012-12-05 01:53:00
9:53 PM,73.9,60.1,62,30.17,10.0,ENE,12.7,-,N/A,,Mostly Cloudy,70,2012-12-05 02:53:00
10:53 PM,72.0,61.0,68,30.16,10.0,NE,11.5,-,0.00,,Overcast,50,2012-12-05 03:53:00
11:53 PM,73.0,64.0,73,30.14,6.0,ENE,10.4,-,0.00,Rain,Rain,70,2012-12-05 04:53:00